EW6662 Weather Reports


time (UTC)temp
C
wind
direction
speed
KPH
gust
KPH
rain 1hr
cm
rain 24hr
cm
rain mn
cm
humidity
%
barometer
mb
20260505200044 26 59 8.0 30.6 0.00 0.00 0.00 33 1002.5
20260505194543 27 111 4.8 19.3 0.00 0.00 0.00 32 1002.7
20260505193041 27 181 9.7 25.7 0.00 0.00 0.00 33 1002.8
20260505191539 27 83 3.2 19.3 0.00 0.00 0.00 32 1002.9
20260505190039 27 160 0.0 17.7 0.00 0.00 0.00 33 1003.0
20260505184535 27 102 6.4 17.7 0.00 0.00 0.00 34 1003.4
20260505183042 26 162 4.8 19.3 0.00 0.00 0.00 36 1003.5
20260505181533 26 135 3.2 17.7 0.00 0.00 0.00 37 1003.8
20260505180025 26 77 6.4 19.3 0.00 0.00 0.00 37 1004.2
20260505174522 25 108 8.0 20.9 0.00 0.00 0.00 40 1004.5
20260505173023 25 55 11.3 27.4 0.00 0.00 0.00 39 1004.7
20260505171520 25 103 0.0 9.7 0.00 0.00 0.00 40 1004.8
20260505170018 24 98 4.8 14.5 0.00 0.00 0.00 43 1005.1
20260505164510 24 38 9.7 22.5 0.00 0.03 0.00 41 1005.4
20260505163010 23 110 1.6 12.9 0.00 0.03 0.00 43 1005.6
20260505161507 23 129 4.8 19.3 0.00 0.03 0.00 43 1005.8
20260505153100 23 127 6.4 16.1 0.00 0.03 0.00 42 1006.3
20260505151611 22 113 0.0 14.5 0.00 0.03 0.00 44 1006.5
20260505140142 20 34 0.0 4.8 0.00 0.03 0.00 48 1006.7
20260505124520 16 164 0.0 1.6 0.00 0.03 0.00 59 1007.8
20260505123015 14 200 0.0 0.0 0.00 0.03 0.00 63 1007.6
20260505121514 14 153 0.0 0.0 0.00 0.03 0.00 65 1007.6
20260505120038 14 128 0.0 0.0 0.00 0.03 0.00 63 1007.6
20260505114511 13 148 0.0 0.0 0.00 0.03 0.00 69 1007.8
20260505113005 11 151 0.0 0.0 0.00 0.03 0.00 74 1007.9
20260505111601 9 151 0.0 0.0 0.00 0.03 0.00 82 1007.9
20260505101557 8 150 0.0 0.0 0.00 0.03 0.00 82 1007.9
20260505100057 8 153 0.0 0.0 0.00 0.03 0.00 82 1007.9
20260505094557 8 153 0.0 0.0 0.00 0.03 0.00 81 1007.9
20260505093058 8 153 0.0 0.0 0.00 0.03 0.00 81 1007.7
20260505091556 8 153 0.0 1.6 0.00 0.03 0.00 81 1007.8
20260505090055 7 141 0.0 0.0 0.00 0.03 0.00 81 1007.8
20260505084555 8 139 0.0 1.6 0.00 0.03 0.00 81 1008.0
20260505083055 8 134 0.0 1.6 0.00 0.03 0.00 80 1008.1
20260505081553 8 102 0.0 0.0 0.00 0.03 0.00 80 1008.2
20260505080053 8 146 0.0 0.0 0.00 0.03 0.00 80 1008.2
20260505074559 8 146 0.0 0.0 0.00 0.03 0.00 80 1008.1
20260505073104 8 146 0.0 0.0 0.00 0.03 0.00 80 1008.2
20260505071558 8 146 0.0 0.0 0.00 0.03 0.00 80 1008.2
20260505070052 7 146 0.0 0.0 0.00 0.03 0.00 79 1008.2
20260505064548 8 146 0.0 0.0 0.00 0.03 0.00 78 1008.4
20260505063046 8 146 0.0 0.0 0.00 0.03 0.00 77 1008.3
20260505061552 8 146 0.0 0.0 0.00 0.03 0.00 76 1008.3
20260505060044 8 147 0.0 0.0 0.00 0.03 0.00 76 1008.3
20260505054600 8 152 0.0 1.6 0.00 0.03 0.00 75 1008.3
20260505053052 9 149 0.0 0.0 0.00 0.03 0.00 73 1008.2
20260505051540 9 149 0.0 0.0 0.00 0.03 0.00 73 1008.2
20260505041533 8 152 0.0 0.0 0.00 0.03 0.00 74 1007.6
20260505040030 9 152 0.0 0.0 0.00 0.03 0.00 72 1007.5
20260505034529 10 153 0.0 0.0 0.00 0.03 0.03 73 1007.3
20260505033029 10 153 0.0 0.0 0.00 0.03 0.03 70 1007.2
20260505031540 10 152 0.0 0.0 0.00 0.03 0.03 71 1007.2
20260505030027 9 152 0.0 0.0 0.00 0.03 0.03 74 1007.1
20260505024534 9 152 0.0 0.0 0.00 0.03 0.03 74 1007.3
20260505023029 9 152 0.0 0.0 0.00 0.03 0.03 74 1007.4
20260505021527 9 152 0.0 0.0 0.00 0.03 0.03 74 1007.5
20260505020031 9 153 0.0 0.0 0.00 0.03 0.03 74 1007.5
20260505014528 10 153 0.0 0.0 0.00 0.03 0.03 76 1007.3
20260505013024 10 153 0.0 0.0 0.00 0.03 0.03 75 1007.2
20260505011531 10 153 0.0 0.0 0.00 0.03 0.03 74 1007.0
20260505010021 10 153 0.0 0.0 0.00 0.03 0.03 73 1006.9
20260505004540 10 153 0.0 0.0 0.00 0.03 0.03 72 1006.7
20260505003021 11 153 0.0 0.0 0.00 0.03 0.03 71 1006.4
20260505001521 11 153 0.0 0.0 0.00 0.03 0.03 69 1006.2
20260505000035 11 153 0.0 0.0 0.00 0.03 0.03 68 1006.0
20260504234519 12 153 0.0 0.0 0.00 0.03 0.03 65 1005.7
20260504233019 12 153 0.0 0.0 0.00 0.03 0.03 61 1005.5
20260504231517 13 153 0.0 0.0 0.00 0.03 0.03 59 1005.3
20260504230018 13 177 0.0 0.0 0.00 0.03 0.03 58 1005.3
20260504224517 14 189 0.0 1.6 0.00 0.03 0.03 56 1005.1
20260504223017 15 178 0.0 0.0 0.00 0.03 0.03 55 1005.0
20260504221515 15 177 0.0 0.0 0.00 0.03 0.03 54 1005.0
20260504220015 16 157 0.0 4.8 0.00 0.03 0.03 51 1005.0
20260504214513 17 218 0.0 1.6 0.00 0.03 0.03 54 1005.1
20260504213014 17 40 1.6 9.7 0.00 0.03 0.03 44 1005.2
20260504211513 17 38 0.0 4.8 0.00 0.03 0.03 45 1005.2
20260504210016 17 347 3.2 11.3 0.00 0.03 0.03 46 1005.3
20260504204509 17 37 3.2 11.3 0.00 0.03 0.03 46 1005.2
20260504203009 17 17 9.7 20.9 0.00 0.03 0.03 46 1005.1
20260504201506 17 328 6.4 16.1 0.00 0.03 0.03 50 1005.1